Regional Weather Roundup
Issued by NWS Wakefield, VA

Home | Current Version | Previous Version | Graphics & Text | Print | Product List | Glossary On
Versions: 1 2 3 4 5 6 7 8 9 10 11 12 13 14 15 16 17 18 19 20 21 22 23 24 25 26 27 28 29 30 31 32 33 34 35 36 37 38 39 40 41 42 43 44 45 46 47 48 49 50
000
ASUS41 KAKQ 030010
RWRAKQ

REGIONAL WEATHER ROUNDUP
NATIONAL WEATHER SERVICE WAKEFIELD VA
700 PM EST MON MAR 02 2015

Note: "fair" indicates few or no clouds below 12,000 feet with no
significant weather and/or obstructions to visibility. * = Denotes
station may not report precipitation (e.g., rain,snow,etc.),
thunder or fog.

VAZ042-051-052>054-056-030100-
NORTHERN VIRGINIA

CITY           SKY/WX    TMP DP  RH WIND       PRES   REMARKS
WASH NATIONAL  CLEAR     39  16  39 N14       30.38R
DULLES         PTCLDY    34  17  50 NE7       30.37R
FORT BELVOIR   CLEAR     38  15  38 N5        30.38R
QUANTICO       CLEAR     39  14  36 N12       30.39R
FREDERICKSBRG* CLEAR     41  17  38 N6        30.35R
STAFFORD*      CLEAR     37  14  38 NE3       30.40R
WARRENTON      CLEAR     37  24  59 N6        30.36R
CULPEPER*      CLEAR     39  18  41 NE5       30.36R
MANASSAS*      NOT AVBL
LEESBURG*      CLEAR     36  19  51 N8        30.38R
WINCHESTER     CLEAR     36  10  35 N5        30.36R
FRONT ROYAL*   FAIR      36  18  48 N3        30.35R
LURAY*         FAIR      39  18  41 N7        30.34R
$$

VAZ048-049-060>072-079>083-030100-
CENTRAL AND SOUTH CENTRAL VIRGINIA

CITY           SKY/WX    TMP DP  RH WIND       PRES   REMARKS
RICHMOND       CLOUDY    42  20  41 NE5       30.33R
CHESTERFIELD*  FAIR      45  18  33 E6        30.34R
PETERSBURG*    PTCLDY    45  27  48 NE7       30.33R
HANOVER        PTCLDY    40  18  41 NE3       30.35R
TAPPAHANNOCK*  PTCLDY    40  11  30 N5        30.35R
QUINTON*       FAIR      41  18  39 CALM      30.34R
CHARLOTTSVILLE CLEAR     41  14  33 N5        30.32R
GORDONSVILLE*  FAIR      34  22  61 CALM      30.34R
ORANGE*        CLEAR     37  21  52 N3        30.36R
LOUISA*        CLEAR     41  16  36 N8        30.32R
BUMPASS*       FAIR      39  18  41 CALM      30.33R
FARMVILLE*     PTCLDY    45  15  30 N3        30.29R
CREWE*         FAIR      43  19  38 CALM      30.30R
FORT PICKETT*  FAIR      44  32  61 E3        30.31R
CHASE CITY*    FAIR      44  30  57 CALM      30.30R
CLARKSVILLE*   FAIR      50  28  43 CALM      30.28R
SOUTH HILL*    PTCLDY    40  37  88 CALM      30.35R
LAWRENCEVILLE* FAIR      41  36  82 CALM      30.30R
EMPORIA*       MOCLDY    37  36  93 CALM      30.33R
$$

VAZ088>098-030100-
SOUTHEAST VIRGINIA

CITY           SKY/WX    TMP DP  RH WIND       PRES   REMARKS
NORFOLK        MOCLDY    37  24  59 NE7       30.35R
VIRGINIA BEACH MOCLDY    37  24  59 NE6       30.34R
NORFOLK NAVAL  MOCLDY    39  24  55 NE9       30.36R
WEST POINT*    PTCLDY    42  14  32 NE5       30.36R
SALUDA*        FAIR      38  19  44 CALM      30.34R
NEWPORT NEWS   LGT RAIN  37  26  64 SE3       30.35R
LANGLEY AFB    PTCLDY    34  26  70 E5        30.35R
FORT EUSTIS    PTCLDY    37  29  73 VRB3      30.33R
WILLIAMSBURG*  PTCLDY    39  27  60 CALM      30.35R
HR EXEC AP*    FAIR      37  23  56 NE9       30.36S
FRANKLIN*      MOCLDY    39  31  71 NE3       30.34R
WAKEFIELD      MOCLDY    40  29  64 E5        30.34R
$$

VAZ020-022-025-037-045-030100-
WEST CENTRAL AND SOUTHWEST VIRGINIA

CITY           SKY/WX    TMP DP  RH WIND       PRES   REMARKS
STAUNTON*      CLEAR     37  16  42 CALM      30.34R
WAYNESBORO*    FAIR      37  13  38 NE3       30.31R
HOT SPRINGS VA MOCLDY    30  12  46 CALM      30.23R
LYNCHBURG      PTCLDY    41  18  39 W3        30.31R
DANVILLE       PTCLDY    48  22  35 N7        30.30R
SOUTH BOSTON*  FAIR      47  18  32 NW5       30.30R
MARTINSVILLE   MOCLDY    46  16  30 N5        30.33R
ROANOKE        PTCLDY    41  14  33 W8        30.34R
BLACKSBURG     PTCLDY    34  17  48 CALM      30.33R
DUBLIN*        PTCLDY    37  21  52 CALM      30.32R
MARION*        MOCLDY    38  20  47 CALM      30.33R
HILLSVILLE*    MOCLDY    38  19  46 NW8       30.28R
RICHLANDS*     FAIR      35  19  51 NW5       30.31R
WISE*          PTCLDY    36  23  60 N5        30.32R
ABINGDON*      PTCLDY    40  24  51 N5        30.32S
$$

MDZ021>025-VAZ099-100-030100-
SOUTHERN MARYLAND AND THE DELMARVA PENINSULA

CITY           SKY/WX    TMP DP  RH WIND       PRES   REMARKS
PATUXENT RIVER PTCLDY    36  19  50 NW9       30.35R
BAY BRIDGE APT   N/A     34  18  51 NW9       30.37R
LEONARDTOWN    CLEAR     36  14  41 CALM      30.38R
DOVER          CLEAR     34  18  52 W10       30.34R
GEORGETOWN     CLEAR     36  15  42 NW5       30.35R
EASTON         CLEAR     36  19  51 NW9       30.39R
CAMBRIDGE      CLEAR     37  18  44 NW7       30.35R
SALISBURY      CLEAR     37  18  46 NW6       30.35R
OCEAN CITY     CLEAR     35  15  44 NW9       30.34R
WALLOPS ISLAND CLEAR     35  16  45 NW5       30.36R
ACCOMACK*      PTCLDY    36  18  48 N7        30.34R
$$

NCZ012>017-030>032-030100-
NORTH CENTRAL AND EASTERN NORTH CAROLINA

CITY           SKY/WX    TMP DP  RH WIND       PRES   REMARKS
ROANOKE RAPIDS FAIR      45  37  76 CALM      30.31R
RALEIGH        MOCLDY    51  21  30 NE6       30.29R
ELIZABETH CITY MOCLDY    40  30  67 NE9       30.35R
AHOSKIE*       PTCLDY    44  37  76 CALM      30.32R
EDENTON*       MOCLDY    40  35  81 E6        30.33R
CURRITUCK*     MOCLDY    40  29  65 CALM      30.35R
KILL DEVIL HLS MOCLDY    38  31  78 NE8       30.32R
MANTEO         MOCLDY    39  28  65 NE9       30.34R
CAPE HATTERAS  PTCLDY    40  32  73 NE12G20   30.34R
TARBORO*       FAIR      49  40  70 NE5       30.32R
GOLDSBORO      MOCLDY    56  47  71 CALM      30.26R
WASHINGTON     CLEAR     46  38  73 E7        30.32R
GREENVILLE     CLEAR     50  43  76 E6        30.31R
NEW BERN       CLEAR     45  36  70 E8        30.32R
WILMINGTON     CLEAR     52  47  83 CALM      30.27R
$$

VAZ048-030100-
ELSEWHERE

CITY           SKY/WX    TMP DP  RH WIND       PRES   REMARKS
HARRISBURG PA  PTCLDY    30  13  49 W7        30.35R
BALTIMORE      PTCLDY    34  16  47 NW12      30.36R
ANNAPOLIS      CLEAR     37  14  38 NW12      30.36R
ANDREWS AFB    CLEAR     36  15  41 NW8       30.35R
PHILADELPHIA   PTCLDY    36  13  38 W13       30.33R
HENDERSON NC   MOCLDY    49  19  30 CALM      30.29R
GREENSBORO     MOCLDY    50  21  32 NE7       30.28R
ROCKY MOUNT    PTCLDY    50  43  77 NE6       30.30R
$$

VAZ100-030100-
MARINE

STATION/POSITION TIME  TEMP    WIND        PRES    WAVE   SWELL
                       AIR SEA DIR/SP/G            HT/PER HT/PER
                 (UTC) (F)     (DEG/KT/KT) (MB)    (FT/S) (FT/S)
BRANDYWINE LGT   2300   34 30  330/  8/ 12   N/A
CAPE MAY NJ      2300   33 35  320/ 13/ 16   N/A
LEWES DE         2300   33 30  310/  7/  8   N/A
15NM E FENWICK I 0000   35 34              1026.4R   2/ 4
OCEAN-CITY-INLET 2300   37 33  340/ 10/ 12   N/A
WACHAPREAGUE VA  2300   38 37   10/  6/ 10   N/A
THOMAS POINT MD  0000   38 32  330/ 11/ 12 1029.4R
COVE POINT MD    2300   36     340/ 14/ 15   N/A
SOLOMONS ISLAND  2300      33                N/A
BISHOPS HEAD MD  2300   37 34  340/  7/  8   N/A
CAMBRIDGE MD     2300   37 32  310/  8/ 11   N/A
LEWISETTA VA     2300   38 34   CALM  /  2   N/A
RAPPAHANNOCK LGT 2300          360/ 15/ 16   N/A
STINGRAY PT      0000   35      50/  6/  8   N/A
YORK RVR RNG VA  2300   37      30/ 11/ 11   N/A
YORKTOWN VA      2300   37 34   80/  8/  8   N/A
DOMINION TERM VA 2300   40      30/  4/  6   N/A
KIPTOPEKE VA     2300      39   60/  5/  9   N/A
CHES BAY BRIDGE  2300   37 33   30/  4/ 10   N/A
CAPE HENRY VA    2300   38      40/  3/  4   N/A
CHESAPEAKE LGHT  2300   39      10/  7/  8 1027.5R
WILLOUBY STN VA  2300   36      30/ 10/ 11   N/A
S CRANEY ISL VA  2300           50/  6/  7   N/A
CAPE HENRY BUOY  0000      35                N/A     2/ 8
1ST LANDING BUOY 0000   36      60/  4/  4 1026.8R
OFFSHORE WE BUOY 0000      37                N/A     3/ 8   2/ 8
64NM E OF VA BCH 0000   45 53  350/ 21/ 25 1026.1R   5/ 6   2/ 8
DUCK PIER NC     2300   37 35   10/  6/  7   N/A
44100 DUCK FRF   0000      37                N/A     2/ 8
44056 DUCK FRF   0000      35                N/A     2/10
OREGON INLET NC  2300   38 43   20/ 10/ 14   N/A
HATTERAS NC      2300   41 44   30/  8/ 12   N/A
CAPE LOOKOUT NC  2300   46      50/ 23/ 26 1025.3R
$$


USA.gov is the U.S. government's official web portal to all federal, state and local government web resources and services.